{"data":{"norad_id":66588,"epoch":"2026-05-24T23:02:06.952416Z","epoch_age_seconds":78277,"freshness":"FRESH","line1":"1 66588U 25270A   26144.95980269  .00018039  00000+0  66299-3 0  9999","line2":"2 66588  43.0033 345.1744 0001487 269.4134  90.6547 15.27601760 29372","mean_motion":15.2760176,"eccentricity":0.0001487,"inclination_deg":43.0033,"raan_deg":345.1744,"arg_perigee_deg":269.4134,"mean_anomaly_deg":90.6547,"bstar":0.00066299,"rev_number":2937,"period_min":94.265405926215,"perigee_km":481.96369086127,"apogee_km":484.00418822869,"semimajor_km":6861.120939545,"source":"CELESTRAK","updated_at":"2026-05-25T13:38:21.286489Z"}}